Warrenton, VA

3:20 PM EDT on July 23, 2017 (GMT -0400)
Warrenton

Weather History for KHWY - December, 2011

Change the Weather History Date:

Friday, December 30, 2011

  Actual Average (KHEF) Record (KHEF)
Temperature  
Mean Temperature 46 °F -  
Max Temperature 60 °F 42 °F 62 °F (1996)
Min Temperature 32 °F 22 °F 14 °F (2001)
Degree Days  
Heating Degree Days 19    
Moisture  
Dew Point 38 °F    
Average Humidity 77    
Maximum Humidity 100    
Minimum Humidity 48    
Precipitation  
Precipitation 0.00 in - - ()
Sea Level Pressure  
Sea Level Pressure 29.94 in    
Wind  
Wind Speed 2 mph (SSE)    
Max Wind Speed 7 mph    
Max Gust Speed -    
Visibility 10 miles    
Events      
Averages and records for this station are not official NWS values.
T = Trace of Precipitation, MM = Missing Value Source: NWS Daily Summary

Daily Weather History Graph

Daily Weather History Graph

Search for Another Location

Airport or City:

Trip Planner

Search our weather history database for the weather conditions in past years. The results will help you decide how hot, cold, wet, or windy it might be!

Date:

Astronomy

Dec. 30, 2011 Rise Set
Actual Time 7:28 AM EST 4:58 PM EST
Civil Twilight 6:58 AM EST 5:28 PM EST
Nautical Twilight 6:25 AM EST 6:01 PM EST
Astronomical Twilight 5:52 AM EST 6:33 PM EST
Moon 10:51 AM EST (12/30) 11:27 PM EST (12/30)
Length of Visible Light 10h 29m
Length of Day
9h 30m
Waxing Crescent, 35% of the Moon is Illuminated
Dec 30
Waxing Crescent
Jan 1
First Quarter
Jan 9
Full
Jan 16
Last Quarter
Jan 23
New

Hourly Weather History & Observations

Time (EST) Temp. Windchill Dew Point Humidity Pressure Visibility Wind Dir Wind Speed Gust Speed Precip Events Conditions
12:15 AM 37.4 °F - 33.8 °F 87% 29.94 in 10.0 mi Calm Calm - N/A   Scattered Clouds
12:35 AM 35.6 °F 32.8 °F 32.0 °F 87% 29.95 in 10.0 mi SSW 3.5 mph - N/A   Clear
12:55 AM 37.4 °F 33.8 °F 33.8 °F 87% 29.95 in 10.0 mi SSW 4.6 mph - N/A   Clear
1:15 AM 37.4 °F 32.1 °F 33.8 °F 87% 29.95 in 10.0 mi SSW 6.9 mph - N/A   Clear
1:35 AM 37.4 °F - 33.8 °F 87% 29.95 in 10.0 mi Calm Calm - N/A   Clear
1:55 AM 37.4 °F - 33.8 °F 87% 29.95 in 10.0 mi Calm Calm - N/A   Clear
2:15 AM 37.4 °F 33.8 °F 33.8 °F 87% 29.95 in 10.0 mi South 4.6 mph - N/A   Clear
2:35 AM 33.8 °F - 32.0 °F 93% 29.96 in 10.0 mi Calm Calm - N/A   Clear
2:55 AM 32.0 °F - 32.0 °F 100% 29.97 in 10.0 mi Calm Calm - N/A   Clear
3:15 AM 32.0 °F - 32.0 °F 100% 29.97 in 10.0 mi Calm Calm - N/A   Clear
3:55 AM 32.0 °F - 32.0 °F 100% 29.98 in 10.0 mi Calm Calm - N/A   Clear
4:55 AM 32.0 °F 27.5 °F 32.0 °F 100% 29.98 in 10.0 mi SW 4.6 mph - N/A   Clear
5:15 AM 33.8 °F 30.8 °F 33.8 °F 100% 30.00 in 10.0 mi SW 3.5 mph - N/A   Clear
5:35 AM 33.8 °F - 32.0 °F 93% 29.98 in 10.0 mi Calm Calm - N/A   Clear
5:55 AM 32.0 °F - 32.0 °F 100% 29.98 in 10.0 mi Calm Calm - N/A   Clear
6:35 AM 32.0 °F - 32.0 °F 100% 29.99 in 10.0 mi Calm Calm - N/A   Clear
7:15 AM 32.0 °F - 32.0 °F 100% 29.99 in 10.0 mi Calm Calm - N/A   Clear
8:35 AM 35.6 °F - 33.8 °F 93% 30.02 in 10.0 mi Calm Calm - N/A   Clear
8:55 AM 35.6 °F - 35.6 °F 100% 30.03 in 10.0 mi Calm Calm - N/A   Clear
9:15 AM 37.4 °F - 35.6 °F 93% 30.03 in 10.0 mi Calm Calm - N/A   Clear
9:35 AM 39.2 °F 35.9 °F 35.6 °F 87% 30.04 in 10.0 mi SW 4.6 mph - N/A   Clear
10:15 AM 42.8 °F - 35.6 °F 76% 30.05 in 10.0 mi Calm Calm - N/A   Clear
10:35 AM 42.8 °F - 35.6 °F 76% 30.04 in 10.0 mi Calm Calm - N/A   Clear
10:55 AM 44.6 °F - 37.4 °F 76% 30.03 in 10.0 mi Calm Calm - N/A   Clear
11:15 AM 46.4 °F - 37.4 °F 71% 30.01 in 10.0 mi Calm Calm - N/A   Clear
12:15 PM 51.8 °F - 41.0 °F 67% 29.98 in 10.0 mi Calm Calm - N/A   Scattered Clouds
12:35 PM 51.8 °F - 41.0 °F 67% 29.94 in 10.0 mi ESE 3.5 mph - N/A   Overcast
12:55 PM 53.6 °F - 41.0 °F 62% 29.94 in 10.0 mi Calm Calm - N/A   Mostly Cloudy
1:15 PM 53.6 °F - 41.0 °F 62% 29.94 in 10.0 mi ESE 4.6 mph - N/A   Clear
2:15 PM 59.0 °F - 41.0 °F 51% 29.92 in 10.0 mi ESE 3.5 mph - N/A   Clear
2:35 PM 60.8 °F - 41.0 °F 48% 29.91 in 10.0 mi SE 5.8 mph - N/A   Clear
2:55 PM 59.0 °F - 41.0 °F 51% 29.91 in 10.0 mi ESE 6.9 mph - N/A   Clear
3:15 PM 59.0 °F - 42.8 °F 55% 29.90 in 10.0 mi East 6.9 mph - N/A   Clear
3:35 PM 57.2 °F - 42.8 °F 59% 29.90 in 10.0 mi East 6.9 mph - N/A   Clear
3:55 PM 55.4 °F - 42.8 °F 63% 29.90 in 10.0 mi ESE 6.9 mph - N/A   Clear
4:15 PM 55.4 °F - 42.8 °F 63% 29.89 in 10.0 mi ESE 6.9 mph - N/A   Clear
4:35 PM 53.6 °F - 42.8 °F 67% 29.89 in 10.0 mi SE 4.6 mph - N/A   Clear
4:55 PM 51.8 °F - 41.0 °F 67% 29.89 in 10.0 mi SE 3.5 mph - N/A   Clear
5:15 PM 53.6 °F - 41.0 °F 62% 29.90 in 10.0 mi SSE 5.8 mph - N/A   Clear
5:35 PM 53.6 °F - 39.2 °F 58% 29.89 in 10.0 mi SE 4.6 mph - N/A   Clear
5:55 PM 53.6 °F - 39.2 °F 58% 29.89 in 10.0 mi SE 4.6 mph - N/A   Clear
6:15 PM 50.0 °F - 39.2 °F 66% 29.89 in 10.0 mi SE 5.8 mph - N/A   Clear
6:35 PM 50.0 °F - 39.2 °F 66% 29.89 in 10.0 mi SE 3.5 mph - N/A   Clear
6:55 PM 51.8 °F - 39.2 °F 62% 29.89 in 10.0 mi SE 4.6 mph - N/A   Clear
7:35 PM 50.0 °F - 39.2 °F 66% 29.89 in 10.0 mi SE 4.6 mph - N/A   Scattered Clouds
7:55 PM 51.8 °F - 41.0 °F 67% 29.89 in 10.0 mi SE 4.6 mph - N/A   Overcast
8:15 PM 51.8 °F - 41.0 °F 67% 29.88 in 10.0 mi SE 4.6 mph - N/A   Mostly Cloudy
8:35 PM 53.6 °F - 41.0 °F 62% 29.89 in 10.0 mi Calm Calm - N/A   Overcast
8:55 PM 51.8 °F - 42.8 °F 71% 29.89 in 10.0 mi SSW 3.5 mph - N/A   Overcast
9:15 PM 50.0 °F - 42.8 °F 76% 29.90 in 10.0 mi Calm Calm - N/A   Mostly Cloudy
9:35 PM 48.2 °F - 41.0 °F 76% 29.89 in 10.0 mi Calm Calm - N/A   Scattered Clouds
9:55 PM 46.4 °F - 42.8 °F 87% 29.89 in 10.0 mi Calm Calm - N/A   Scattered Clouds
10:15 PM 46.4 °F - 42.8 °F 87% 29.88 in 10.0 mi Calm Calm - N/A   Clear
10:35 PM 50.0 °F - 42.8 °F 76% 29.87 in 10.0 mi SSE 3.5 mph - N/A   Clear
10:55 PM 51.8 °F - 42.8 °F 71% 29.87 in 10.0 mi South 4.6 mph - N/A   Clear
11:15 PM 53.6 °F - 44.6 °F 72% 29.87 in 10.0 mi South 5.8 mph - N/A   Scattered Clouds
11:35 PM 53.6 °F - 46.4 °F 77% 29.85 in 10.0 mi South 5.8 mph - N/A   Scattered Clouds
11:55 PM 53.6 °F - 46.4 °F 77% 29.85 in 10.0 mi South 5.8 mph - N/A   Scattered Clouds